Flag for Hungary Weather past 2 weeks in Debrecen, Hungary

Now
43 °F

Drizzle. More clouds than sun.


Feels Like: 35 °F
Forecast: 39 / 53 °F
Wind: 16 mph from Northeast

Location: Debrecen Airport

Current Time: Oct 24, 2014 at 9:34:44 AM

Latest Report: Oct 24, 2014 at 8:45 AM


Visibility: 4 mi

Pressure: 29.95 "Hg

Humidity: 100%

Dew point: 43 °F

Location of DebrecenLocation

Historic Weather in Debrecen — Graph

°F

Debrecen temperature yesterday

Maximum temperature yesterday: 54 °F (at 4:15 PM)
Minimum temperature yesterday: 45 °F (at 4:45 AM)
Average temperature yesterday: 49 °F

Past Weeks' High & Low Weather Summary

 TemperatureHumidityPressure
High79 °F (Oct 14, 2:45 PM)100% (Oct 10, 4:45 AM)30.39 "Hg (Oct 10, 4:45 AM)
Low43 °F (Oct 19, 5:45 AM)42% (Oct 11, 2:45 PM)29.47 "Hg (Oct 22, 12:15 PM)
Average59 °F82%29.94 "Hg
* Reported Oct 9 8:15 AM — Oct 24 8:15 AM, Debrecen, Weather by CustomWeather, © 2014

Note: Actual official high and low records may vary slightly from our data, if they occured in-between our weather recording intervals... More about our weather records

Advertising

Debrecen weather history for previous 24 hours

 ConditionsComfort  
Time TempWeatherWind HumidityBarometerVisibility
8:15 AM
Oct 24
43 °FDrizzle. More clouds than sun.16 mph93%29.92 "Hg4 mi
7:45 AM43 °FDrizzle. Mostly cloudy.17 mph93%29.92 "HgN/A
7:15 AM43 °FRain. Mostly cloudy.16 mph93%29.89 "HgN/A
6:45 AM43 °FRain. Mostly cloudy.16 mph93%29.89 "HgN/A
6:15 AM43 °FDrizzle. Overcast.15 mph93%29.89 "HgN/A
5:45 AM43 °FDrizzle. Overcast.17 mph93%29.86 "HgN/A
5:15 AM43 °FDrizzle. Overcast.18 mph93%29.86 "HgN/A
4:45 AM43 °FDrizzle. Overcast.18 mph93%29.86 "HgN/A
8:45 PM
Oct 23
50 °FMostly cloudy.21 mph88%29.74 "HgN/A
8:15 PM50 °FMostly cloudy.18 mph88%29.74 "HgN/A
7:45 PM52 °FMostly cloudy.20 mph88%29.74 "HgN/A
7:15 PM52 °FMostly cloudy.18 mph88%29.71 "HgN/A
6:45 PM54 °FMostly cloudy.18 mph88%29.71 "HgN/A
6:15 PM54 °FMore clouds than sun.20 mph88%29.71 "HgN/A
5:45 PM54 °FMore clouds than sun.18 mph94%29.71 "HgN/A
5:15 PM54 °FBroken clouds.18 mph94%29.68 "HgN/A
4:45 PM54 °FMore clouds than sun.20 mph94%29.68 "HgN/A
4:15 PM54 °FMore clouds than sun.16 mph94%29.68 "HgN/A
3:45 PM52 °FMostly cloudy.14 mph94%29.68 "HgN/A
3:15 PM50 °FMostly cloudy.12 mph94%29.68 "HgN/A
2:45 PM50 °FBroken clouds.10 mph94%29.68 "HgN/A
2:15 PM48 °FPartly sunny.10 mph100%29.71 "HgN/A
1:45 PM48 °FPartly sunny.9 mph94%29.71 "HgN/A
1:15 PM48 °FPartly sunny.7 mph94%29.71 "HgN/A
12:45 PM48 °FPartly sunny.8 mph94%29.71 "HgN/A
12:15 PM48 °FDrizzle. Partly sunny.9 mph94%29.71 "Hg4 mi
11:45 AM48 °FDrizzle. Partly sunny.6 mph94%29.71 "Hg4 mi
11:15 AM48 °FDrizzle. More clouds than sun.8 mph87%29.71 "Hg4 mi
10:45 AM46 °FMore clouds than sun.7 mph93%29.71 "Hg5 mi
10:15 AM46 °FDrizzle. More clouds than sun.5 mph93%29.71 "Hg5 mi
9:45 AM46 °FDrizzle. More clouds than sun.6 mph100%29.71 "Hg2 mi
9:15 AM46 °FDrizzle. More clouds than sun.5 mph93%29.71 "Hg2 mi
Weather by CustomWeather, © 2014

See weather overviewHow to use our weather pages